{"data":{"norad_id":64304,"intl_designator":"2025-123P","name":"STARLINK-34360","alt_names":[],"object_type":"PAYLOAD","status":"ACTIVE","operator":null,"country":"US","launch_date":"2025-06-08","launch_site_code":"AFWTR","launch_vehicle":null,"mission":null,"orbit_class":"UNKNOWN","rcs_meters":null,"size_class":null,"mass_kg":null,"dimensions":null,"purposes":["comms"],"wikipedia_slug":null,"has_3d_model":false,"image_url":null,"decayed_at":null,"tle_current":{"epoch":"2026-09-20T16:45:06.319584Z","epoch_age_seconds":120810,"freshness":"FRESH","line1":"1 64304U 25123P   26263.69798981  .00012530  00000+0  43962-3 0  9993","line2":"2 64304  70.0012  60.5874 0003470 266.8050  93.2728 15.29577632 70881","mean_motion":15.29577632,"eccentricity":0.000347,"inclination_deg":70.0012,"raan_deg":60.5874,"arg_perigee_deg":266.805,"mean_anomaly_deg":93.2728,"bstar":0.00043962,"rev_number":7088,"period_min":94.143636117189,"perigee_km":474.69521994082,"apogee_km":479.45273635965,"semimajor_km":6855.2109781502,"source":"CELESTRAK","updated_at":"2026-09-21T09:00:35.307540Z"}}}